Pinopolis, SC

6:25 PM EDT on September 27, 2016 (GMT -0400)
Moncks Corner

Weather History for KMKS - February, 2014

Change the Weather History Date:

Friday, February 21, 2014

  Actual Average (KCHS) Record (KCHS)
Temperature  
Mean Temperature 62 °F 53 °F  
Max Temperature 73 °F 64 °F 82 °F (1991)
Min Temperature 50 °F 42 °F 22 °F (1958)
Degree Days  
Heating Degree Days 3 12  
Month to date heating degree days 297  
Since 1 July heating degree days 1556  
Cooling Degree Days 0 0  
Month to date cooling degree days 0  
Year to date cooling degree days 2  
Growing Degree Days 12 (Base 50)    
Moisture  
Dew Point 64 °F    
Average Humidity 92    
Maximum Humidity 100    
Minimum Humidity 77    
Precipitation  
Precipitation 0.12 in 0.11 in 1.28 in (2005)
Month to date precipitation 2.22  
Year to date precipitation 5.93  
Sea Level Pressure  
Sea Level Pressure 29.98 in    
Wind  
Wind Speed 8 mph (SW)    
Max Wind Speed 20 mph    
Max Gust Speed 30 mph    
Visibility 9 miles    
Events Rain , Thunderstorm    
T = Trace of Precipitation, MM = Missing Value Source: NWS Daily Summary

Daily Weather History Graph

Daily Weather History Graph

Search for Another Location

Airport or City:

Trip Planner

Search our weather history database for the weather conditions in past years. The results will help you decide how hot, cold, wet, or windy it might be!

Date:

Astronomy

Feb. 21, 2014 Rise Set
Actual Time 6:57 AM EST 6:10 PM EST
Civil Twilight 6:32 AM EST 6:35 PM EST
Nautical Twilight 6:03 AM EST 7:04 PM EST
Astronomical Twilight 5:34 AM EST 7:33 PM EST
Moon No Moon Rise 10:41 AM EST (2/21)
Length of Visible Light 12h 03m
Length of Day
11h 12m
Waning Gibbous, 61% of the Moon is Illuminated
Feb 21
Waning Gibbous
Feb 22
Last Quarter
Mar 1
New
Mar 8
First Quarter
Mar 16
Full

Hourly Weather History & Observations

Time (EST) Temp. Dew Point Humidity Pressure Visibility Wind Dir Wind Speed Gust Speed Precip Events Conditions
12:15 AM 66.2 °F 64.4 °F 94% 30.06 in 10.0 mi South 5.8 mph - N/A   Clear
12:35 AM 66.2 °F 64.4 °F 94% 30.05 in 10.0 mi South 5.8 mph - N/A   Clear
12:55 AM 66.2 °F 64.4 °F 94% 30.04 in 7.0 mi South 4.6 mph - N/A   Clear
1:15 AM 66.2 °F 64.4 °F 94% 30.03 in 7.0 mi South 4.6 mph - N/A   Clear
1:35 AM 66.2 °F 66.2 °F 100% 30.02 in 10.0 mi South 5.8 mph - N/A   Clear
1:55 AM 66.2 °F 66.2 °F 100% 30.02 in 10.0 mi South 5.8 mph - N/A   Clear
2:15 AM 66.2 °F 66.2 °F 100% 30.02 in 10.0 mi South 8.1 mph - N/A   Clear
2:35 AM 68.0 °F 66.2 °F 94% 30.01 in 10.0 mi South 8.1 mph - N/A   Clear
2:55 AM 68.0 °F 66.2 °F 94% 30.00 in 7.0 mi SSW 8.1 mph - N/A   Scattered Clouds
3:15 AM 68.0 °F 66.2 °F 94% 30.00 in 10.0 mi SSW 9.2 mph - N/A   Scattered Clouds
3:35 AM 68.0 °F 66.2 °F 94% 30.01 in 10.0 mi SSW 13.8 mph 17.3 mph N/A   Mostly Cloudy
3:55 AM 68.0 °F 66.2 °F 94% 30.01 in 7.0 mi SSW 6.9 mph - N/A   Mostly Cloudy
4:15 AM 68.0 °F 66.2 °F 94% 30.00 in 10.0 mi South 9.2 mph - N/A   Overcast
4:35 AM 68.0 °F 66.2 °F 94% 30.00 in 10.0 mi SSW 10.4 mph - N/A   Overcast
4:55 AM 68.0 °F 66.2 °F 94% 29.99 in 10.0 mi South 6.9 mph - N/A   Scattered Clouds
5:15 AM 68.0 °F 66.2 °F 94% 29.98 in 10.0 mi South 9.2 mph - N/A   Clear
5:35 AM 68.0 °F 66.2 °F 94% 29.98 in 10.0 mi SSW 11.5 mph - N/A   Scattered Clouds
5:55 AM 68.0 °F 66.2 °F 94% 29.98 in 10.0 mi SSW 12.7 mph 17.3 mph N/A   Mostly Cloudy
6:15 AM 68.0 °F 66.2 °F 94% 29.98 in 10.0 mi SSW 10.4 mph - N/A   Overcast
6:35 AM 68.0 °F 66.2 °F 94% 29.97 in 7.0 mi South 11.5 mph 18.4 mph N/A   Overcast
6:55 AM 69.8 °F 66.2 °F 88% 29.97 in 10.0 mi SSW 13.8 mph 17.3 mph N/A   Overcast
7:15 AM 69.8 °F 68.0 °F 94% 29.97 in 10.0 mi SSW 15.0 mph 24.2 mph N/A   Overcast
7:35 AM 69.8 °F 68.0 °F 94% 29.98 in 10.0 mi SSW 13.8 mph 21.9 mph N/A   Overcast
7:55 AM 69.8 °F 68.0 °F 94% 29.98 in 7.0 mi SSW 18.4 mph 26.5 mph N/A   Overcast
8:15 AM 69.8 °F 68.0 °F 94% 29.98 in 7.0 mi SSW 16.1 mph 26.5 mph N/A   Overcast
8:35 AM 69.8 °F 68.0 °F 94% 29.98 in 10.0 mi SSW 16.1 mph 28.8 mph N/A   Overcast
8:55 AM 71.6 °F 68.0 °F 88% 29.98 in 7.0 mi SSW 16.1 mph 26.5 mph N/A   Overcast
9:15 AM 71.6 °F 68.0 °F 88% 29.98 in 10.0 mi SSW 13.8 mph 23.0 mph N/A   Overcast
9:35 AM 71.6 °F 68.0 °F 88% 29.98 in 10.0 mi SSW 18.4 mph 24.2 mph N/A   Overcast
9:55 AM 71.6 °F 68.0 °F 88% 29.98 in 7.0 mi SSW 15.0 mph 21.9 mph N/A   Overcast
10:15 AM 71.6 °F 68.0 °F 88% 29.97 in 7.0 mi SSW 19.6 mph 26.5 mph N/A   Overcast
10:35 AM 73.4 °F 68.0 °F 83% 29.97 in 7.0 mi SSW 16.1 mph 25.3 mph N/A   Overcast
10:55 AM 73.4 °F 68.0 °F 83% 29.96 in 10.0 mi SSW 16.1 mph 29.9 mph N/A   Overcast
11:15 AM 73.4 °F 68.0 °F 83% 29.96 in 7.0 mi SSW 17.3 mph 23.0 mph N/A   Overcast
11:35 AM 73.4 °F 68.0 °F 83% 29.96 in 7.0 mi SW 16.1 mph 28.8 mph N/A   Overcast
11:55 AM 71.6 °F 68.0 °F 88% 29.97 in 5.0 mi SW 18.4 mph 28.8 mph N/A Rain Light Rain
12:15 PM 69.8 °F 68.0 °F 94% 29.96 in 7.0 mi SW 16.1 mph 28.8 mph N/A   Overcast
12:35 PM 71.6 °F 68.0 °F 88% 29.95 in 7.0 mi SW 16.1 mph 21.9 mph N/A   Overcast
12:55 PM 69.8 °F 68.0 °F 94% 29.96 in 3.0 mi West 6.9 mph 26.5 mph 0.07 in Rain , Thunderstorm Light Thunderstorms and Rain
1:15 PM 66.2 °F 64.4 °F 94% 29.96 in 10.0 mi WSW 9.2 mph - 0.01 in Rain Light Rain
1:35 PM 66.2 °F 64.4 °F 94% 29.94 in 10.0 mi SSW 9.2 mph - 0.03 in Rain Light Rain
1:55 PM 64.4 °F 64.4 °F 100% 29.90 in 10.0 mi South 9.2 mph - 0.05 in Rain Light Rain
2:15 PM 66.2 °F 64.4 °F 94% 29.91 in 7.0 mi SW 9.2 mph - N/A Thunderstorm Scattered Clouds
2:35 PM 66.2 °F 64.4 °F 94% 29.92 in 10.0 mi WSW 10.4 mph - N/A   Scattered Clouds
2:55 PM 66.2 °F 64.4 °F 94% 29.90 in 10.0 mi WSW 5.8 mph - N/A   Scattered Clouds
3:15 PM 66.2 °F 64.4 °F 94% 29.91 in 10.0 mi WSW 6.9 mph - N/A   Clear
3:35 PM 66.2 °F 64.4 °F 94% 29.91 in 10.0 mi West 6.9 mph - N/A   Mostly Cloudy
3:55 PM 68.0 °F 64.4 °F 88% 29.92 in 10.0 mi West 6.9 mph - N/A   Overcast
4:15 PM 68.0 °F 64.4 °F 88% 29.92 in 7.0 mi WSW 5.8 mph - N/A   Overcast
4:35 PM 68.0 °F 64.4 °F 88% 29.92 in 10.0 mi WSW 6.9 mph - N/A   Overcast
4:55 PM 68.0 °F 64.4 °F 88% 29.92 in 10.0 mi WSW 9.2 mph 16.1 mph N/A   Mostly Cloudy
5:15 PM 68.0 °F 62.6 °F 83% 29.92 in 10.0 mi WSW 9.2 mph - N/A   Overcast
5:35 PM 69.8 °F 64.4 °F 83% 29.93 in 10.0 mi West 6.9 mph - N/A   Mostly Cloudy
5:55 PM 68.0 °F 62.6 °F 83% 29.94 in 10.0 mi West 5.8 mph - N/A   Scattered Clouds
6:15 PM 68.0 °F 62.6 °F 83% 29.95 in 10.0 mi WSW 6.9 mph - N/A   Overcast
6:35 PM 66.2 °F 62.6 °F 88% 29.96 in 10.0 mi WSW 6.9 mph 17.3 mph N/A   Mostly Cloudy
6:55 PM 66.2 °F 60.8 °F 83% 29.97 in 10.0 mi WSW 6.9 mph - N/A   Scattered Clouds
7:15 PM 64.4 °F 60.8 °F 88% 29.98 in 10.0 mi Calm Calm - N/A   Clear
7:35 PM 64.4 °F 60.8 °F 88% 29.99 in 10.0 mi Calm Calm - N/A   Clear
7:55 PM 62.6 °F 60.8 °F 94% 30.00 in 10.0 mi Calm Calm - N/A   Clear
8:15 PM 60.8 °F 60.8 °F 100% 30.00 in 7.0 mi Calm Calm - N/A   Clear
8:35 PM 59.0 °F 59.0 °F 100% 30.01 in 10.0 mi Calm Calm - N/A   Clear
8:55 PM 59.0 °F 59.0 °F 100% 30.02 in 10.0 mi Calm Calm - N/A   Clear
9:15 PM 59.0 °F 59.0 °F 100% 30.02 in 10.0 mi NW 3.5 mph - N/A   Clear
9:35 PM 60.8 °F 57.2 °F 88% 30.02 in 10.0 mi Calm Calm - N/A   Clear
9:55 PM 59.0 °F 57.2 °F 94% 30.03 in 10.0 mi NW 3.5 mph - N/A   Clear
10:15 PM 59.0 °F 53.6 °F 82% 30.04 in 10.0 mi Calm Calm - N/A   Clear
10:35 PM 59.0 °F 51.8 °F 77% 30.04 in 10.0 mi Calm Calm - N/A   Clear
10:55 PM 55.4 °F 53.6 °F 94% 30.04 in 10.0 mi Calm Calm - N/A   Clear
11:15 PM 51.8 °F 51.8 °F 100% 30.05 in 7.0 mi SW 3.5 mph - N/A   Clear
11:35 PM 51.8 °F 51.8 °F 100% 30.05 in 10.0 mi Calm Calm - N/A   Clear
11:55 PM 50.0 °F 50.0 °F 100% 30.05 in 10.0 mi Calm Calm - N/A   Clear